Location: Aytr�
(46.1357°N, 1.1145°W)
Time: 10:04:15
(UTC+00:00)

ISS - Pass Details

Date: 27 September 2021
Orbit: 417 x 423 km, 51.6° (Epoch: 20 October)

Event Time Altitude Azimuth Distance (km) Brightness Sun altitude
Rises 19:53:16 0° 296° (WNW) 2,365 1.6 -21.4°
Reaches altitude 10° 19:55:26 10° 303° (WNW) 1,501 0.1 -21.8°
Enters shadow 19:58:10 39° 350° (N) 641 -2.7 -22.2°
